Regional Weather Roundup
Issued by NWS State College, PA

Home | Current Version | Previous Version | Text Only | Print | Product List | Glossary On
Versions: 1 2 3 4 5 6 7 8 9 10 11 12 13 14 15 16 17 18 19 20 21 22 23 24 25 26 27 28 29 30 31 32 33 34 35 36 37 38 39 40 41 42 43 44 45 46 47 48 49 50
000
ASUS41 KCTP 291203
RWRCTP

REGIONAL WEATHER ROUNDUP
NATIONAL WEATHER SERVICE STATE COLLEGE PA
800 AM EDT FRI AUG 29 2014

Note: "fair" indicates few or no clouds below 12,000 feet with no
significant weather and/or obstructions to visibility.

* = STATION THAT DOES NOT REPORT PRECIPITATION /E.G. RAIN...SNOW...ETC/
    THUNDER OR FOG.

PAZ002>004-007>009-013>016-020>023-029>032-291300-
WESTERN PENNSYLVANIA

CITY           SKY/WX    TMP DP  RH WIND       PRES   REMARKS
ERIE           MOSUNNY   56  50  80 S8        30.18S
MEADVILLE      MOSUNNY   54  49  83 CALM      30.20R
FRANKLIN*      MOSUNNY   48  46  93 CALM      30.22S
NEW CASTLE     FAIR      49  49 100 CALM      30.21R
BEAVER COUNTY  SUNNY     54  50  87 CALM      30.19R
BUTLER*        SUNNY     52  48  87 NE5       30.22R
PITTSBURGH INT PTSUNNY   53  51  93 E3        30.19R
PITTSBURGH     SUNNY     54  50  86 CALM      30.19R
INDIANA*       SUNNY     54  48  82 E6        30.25R
LATROBE        SUNNY     52  52 100 CALM      30.20R
WASHINGTON CO* PTSUNNY   48  46  93 CALM      30.19R VSB 1
$$

PAZ004>006-010>012-017>019-024>028-033>037-041-042-045-046-049>053-291300-
CENTRAL PENNSYLVANIA

CITY           SKY/WX    TMP DP  RH WIND       PRES   REMARKS
BRADFORD       MOSUNNY   44  41  89 CALM      30.22S
DUBOIS         MOSUNNY   51  47  86 E5        30.21R
CLEARFIELD     PTSUNNY   47  47 100 NE5       30.24R FOG
JOHNSTOWN      SUNNY     54  48  80 W3        30.22R
ALTOONA        SUNNY     53  52  96 CALM      30.23R
STATE COLLEGE  SUNNY     52  50  93 CALM      30.22S
WILLIAMSPORT   MOSUNNY   54  49  83 NW3       30.21S
SELINSGROVE    MOSUNNY   54  51  90 CALM      30.23R
FT INDIANTOWN  MOSUNNY   54  53  97 CALM      30.21R
CAPITAL CITY   SUNNY     56  52  86 W3        30.21R
HARRISBURG     PTSUNNY   60  53  77 NW6       30.20R
YORK           SUNNY     52  51  97 CALM      30.21R
$$

PAZ038>040-043-044-047-048-054-055-060>062-067>071-291300-
EASTERN PENNSYLVANIA

CITY           SKY/WX    TMP DP  RH WIND       PRES   REMARKS
SCRANTON       MOSUNNY   53  49  86 CALM      30.21R
MOUNT POCONO   MOSUNNY   53  48  83 NW3       30.21R
ALLENTOWN      MOSUNNY   57  51  80 CALM      30.20R
QUAKERTOWN*    MOSUNNY   55  52  88 CALM      30.20R
READING        MOSUNNY   58  52  80 CALM      30.19R
LANCASTER      MOSUNNY   54  50  86 W5        30.21R
COATESVILLE    MOSUNNY   59  55  88 N3        30.20R
POTTSTOWN      MOSUNNY   57  51  80 NW5       30.21R
BLUE BELL      MOSUNNY   59  52  77 CALM      30.18R
DOYLESTOWN     MOSUNNY   58  52  80 N3        30.18R
WILLOW GROVE   NOT AVBL
NORTH PHILA    MOSUNNY   62  50  64 N7        30.19R
PHILADELPHIA   PTSUNNY   64  51  62 N6        30.18R
$$


USA.gov is the U.S. government's official web portal to all federal, state and local government web resources and services.